| time (UTC) | temp F | wind direction | speed knots | gust knots | rain 1hr in | rain 24hr in | rain mn in | humidity % | barometer mb |
| 20260506002947 | 62 | 102 | 1.7 | 1.7 | 0.00 | 0.00 | 0.00 | 65 | 1020.8 |
| 20260506001744 | 59 | 85 | 2.6 | 4.3 | 0.00 | 0.00 | 0.00 | 72 | 1020.7 |
| 20260506000550 | 59 | 51 | 0.0 | 1.7 | 0.00 | 0.00 | 0.00 | 71 | 1020.9 |
| 20260505235346 | 58 | 73 | 0.0 | 0.0 | 0.00 | 0.00 | 0.00 | 73 | 1021.1 |
| 20260505234147 | 58 | 103 | 0.0 | 0.0 | 0.00 | 0.00 | 0.00 | 75 | 1021.0 |
| 20260505232946 | 57 | 16 | 0.9 | 0.9 | 0.00 | 0.00 | 0.00 | 80 | 1021.5 |
| 20260505231746 | 56 | 2 | 0.9 | 2.6 | 0.00 | 0.00 | 0.00 | 80 | 1021.5 |
| 20260505230545 | 55 | 58 | 0.9 | 1.7 | 0.00 | 0.00 | 0.00 | 81 | 1021.7 |
| 20260505225346 | 55 | 331 | 0.0 | 0.0 | 0.00 | 0.00 | 0.00 | 82 | 1021.6 |
| 20260505224146 | 54 | 175 | 0.0 | 0.0 | 0.00 | 0.00 | 0.00 | 83 | 1021.7 |
| 20260505221750 | 53 | 88 | 0.0 | 0.0 | 0.00 | 0.00 | 0.00 | 87 | 1021.6 |
| 20260505220547 | 52 | 22 | 0.0 | 0.0 | 0.00 | 0.00 | 0.00 | 89 | 1021.6 |
| 20260505215347 | 51 | 30 | 0.0 | 0.0 | 0.00 | 0.00 | 0.00 | 91 | 1021.6 |
| 20260505214148 | 50 | 22 | 0.0 | 0.0 | 0.00 | 0.00 | 0.00 | 92 | 1021.5 |
| 20260505212946 | 50 | 25 | 0.0 | 0.0 | 0.00 | 0.00 | 0.00 | 93 | 1021.6 |
| 20260505211749 | 50 | 94 | 0.0 | 0.0 | 0.00 | 0.00 | 0.00 | 93 | 1021.5 |
| 20260505210547 | 49 | 352 | 0.0 | 0.0 | 0.00 | 0.00 | 0.00 | 94 | 1021.6 |
| 20260505205348 | 49 | 316 | 0.0 | 0.0 | 0.00 | 0.00 | 0.00 | 93 | 1021.4 |
| 20260505204149 | 49 | 206 | 0.0 | 0.0 | 0.00 | 0.00 | 0.00 | 95 | 1021.5 |
| 20260505202947 | 48 | 257 | 0.0 | 0.0 | 0.00 | 0.00 | 0.00 | 96 | 1021.6 |
| 20260505201746 | 48 | 289 | 0.0 | 0.9 | 0.00 | 0.00 | 0.00 | 96 | 1021.3 |
| 20260505200551 | 47 | 312 | 0.0 | 0.0 | 0.00 | 0.00 | 0.00 | 96 | 1021.4 |
| 20260505195345 | 48 | 272 | 0.0 | 0.0 | 0.00 | 0.00 | 0.00 | 95 | 1021.4 |
| 20260505194147 | 48 | 239 | 0.9 | 1.7 | 0.00 | 0.00 | 0.00 | 95 | 1021.3 |
| 20260505192947 | 48 | 287 | 0.0 | 0.0 | 0.00 | 0.00 | 0.00 | 95 | 1021.2 |
| 20260505191747 | 48 | 219 | 0.9 | 1.7 | 0.00 | 0.00 | 0.00 | 95 | 1021.1 |
| 20260505190545 | 48 | 285 | 0.0 | 0.9 | 0.00 | 0.00 | 0.00 | 94 | 1021.1 |
| 20260505185345 | 48 | 259 | 0.0 | 0.0 | 0.00 | 0.00 | 0.00 | 94 | 1021.0 |
| 20260505184146 | 48 | 215 | 0.9 | 1.7 | 0.00 | 0.00 | 0.00 | 93 | 1020.9 |
| 20260505182945 | 48 | 329 | 0.0 | 0.0 | 0.00 | 0.00 | 0.00 | 93 | 1020.9 |
| 20260505181747 | 49 | 287 | 0.0 | 0.0 | 0.00 | 0.00 | 0.00 | 91 | 1020.9 |
| 20260505180546 | 49 | 238 | 1.7 | 1.7 | 0.00 | 0.00 | 0.00 | 91 | 1021.0 |
| 20260505174146 | 49 | 270 | 1.7 | 2.6 | 0.00 | 0.00 | 0.00 | 91 | 1020.8 |
| 20260505172947 | 50 | 246 | 1.7 | 1.7 | 0.00 | 0.00 | 0.00 | 89 | 1020.8 |
| 20260505171745 | 50 | 263 | 1.7 | 2.6 | 0.00 | 0.00 | 0.00 | 89 | 1020.9 |
| 20260505170547 | 50 | 250 | 1.7 | 2.6 | 0.00 | 0.00 | 0.00 | 89 | 1020.9 |
| 20260505165348 | 50 | 243 | 0.9 | 2.6 | 0.00 | 0.00 | 0.00 | 89 | 1021.1 |
| 20260505164147 | 50 | 270 | 0.0 | 0.9 | 0.00 | 0.00 | 0.00 | 89 | 1021.1 |
| 20260505162946 | 50 | 213 | 1.7 | 1.7 | 0.00 | 0.00 | 0.00 | 90 | 1021.0 |
| 20260505161747 | 49 | 224 | 0.0 | 0.9 | 0.00 | 0.00 | 0.00 | 90 | 1021.0 |
| 20260505160547 | 49 | 233 | 0.9 | 2.6 | 0.00 | 0.00 | 0.00 | 91 | 1021.1 |
| 20260505152946 | 49 | 252 | 0.0 | 0.0 | 0.00 | 0.00 | 0.00 | 91 | 1021.2 |
| 20260505151746 | 50 | 235 | 0.9 | 1.7 | 0.00 | 0.00 | 0.00 | 89 | 1021.2 |
| 20260505150545 | 50 | 228 | 0.9 | 1.7 | 0.00 | 0.00 | 0.00 | 89 | 1021.3 |
| 20260505140545 | 51 | 311 | 0.0 | 0.0 | 0.00 | 0.00 | 0.00 | 87 | 1021.2 |
| 20260505124145 | 53 | 139 | 0.0 | 0.0 | 0.00 | 0.00 | 0.00 | 84 | 1020.5 |
| 20260505122947 | 54 | 202 | 0.0 | 0.0 | 0.00 | 0.00 | 0.00 | 82 | 1020.4 |
| 20260505121818 | 54 | 271 | 0.0 | 0.0 | 0.00 | 0.00 | 0.00 | 81 | 1020.3 |
| 20260505120618 | 54 | 201 | 0.0 | 0.0 | 0.00 | 0.00 | 0.00 | 79 | 1020.2 |
| 20260505115419 | 55 | 216 | 0.9 | 1.7 | 0.00 | 0.00 | 0.00 | 78 | 1019.9 |
| 20260505114218 | 55 | 296 | 0.9 | 0.9 | 0.00 | 0.00 | 0.00 | 77 | 1019.9 |
| 20260505113018 | 56 | 158 | 1.7 | 2.6 | 0.00 | 0.00 | 0.00 | 75 | 1019.6 |
| 20260505111818 | 56 | 240 | 1.7 | 2.6 | 0.00 | 0.00 | 0.00 | 74 | 1019.2 |
| 20260505110619 | 57 | 231 | 0.9 | 1.7 | 0.00 | 0.00 | 0.00 | 73 | 1019.4 |
| 20260505101819 | 59 | 290 | 0.9 | 1.7 | 0.00 | 0.00 | 0.00 | 68 | 1018.4 |
| 20260505100617 | 60 | 304 | 0.0 | 0.0 | 0.00 | 0.00 | 0.00 | 65 | 1018.4 |
| 20260505095419 | 62 | 300 | 1.7 | 2.6 | 0.00 | 0.00 | 0.00 | 62 | 1018.4 |
| 20260505094219 | 64 | 170 | 2.6 | 6.1 | 0.00 | 0.00 | 0.00 | 54 | 1017.9 |
| 20260505093018 | 65 | 127 | 7.0 | 10.4 | 0.00 | 0.00 | 0.00 | 54 | 1018.1 |
| 20260505090619 | 66 | 119 | 11.3 | 14.8 | 0.00 | 0.00 | 0.00 | 52 | 1017.5 |
| 20260505085419 | 66 | 137 | 11.3 | 15.6 | 0.00 | 0.00 | 0.00 | 50 | 1017.5 |
| 20260505084219 | 67 | 130 | 10.4 | 14.8 | 0.00 | 0.00 | 0.00 | 48 | 1017.4 |
| 20260505083018 | 67 | 130 | 13.9 | 19.1 | 0.00 | 0.00 | 0.00 | 47 | 1017.1 |
| 20260505081819 | 68 | 173 | 11.3 | 21.7 | 0.00 | 0.00 | 0.00 | 45 | 1017.1 |
| 20260505080618 | 68 | 219 | 12.2 | 18.2 | 0.00 | 0.00 | 0.00 | 43 | 1017.0 |
| 20260505075417 | 69 | 187 | 6.1 | 12.2 | 0.00 | 0.00 | 0.00 | 42 | 1016.9 |
| 20260505074219 | 69 | 113 | 6.1 | 13.0 | 0.00 | 0.00 | 0.00 | 41 | 1017.1 |
| 20260505073017 | 69 | 86 | 5.2 | 13.0 | 0.00 | 0.00 | 0.00 | 40 | 1016.4 |
| 20260505071818 | 70 | 88 | 5.2 | 15.6 | 0.00 | 0.00 | 0.00 | 38 | 1016.6 |
| 20260505070619 | 70 | 61 | 6.1 | 14.8 | 0.00 | 0.00 | 0.00 | 37 | 1016.6 |
| 20260505065418 | 71 | 121 | 7.8 | 15.6 | 0.00 | 0.00 | 0.00 | 36 | 1016.5 |
| 20260505064219 | 71 | 42 | 5.2 | 8.7 | 0.00 | 0.00 | 0.00 | 35 | 1016.5 |
| 20260505063019 | 71 | 135 | 1.7 | 6.1 | 0.00 | 0.00 | 0.00 | 34 | 1016.4 |
| 20260505061818 | 71 | 172 | 1.7 | 4.3 | 0.00 | 0.00 | 0.00 | 33 | 1016.3 |
| 20260505060617 | 71 | 130 | 4.3 | 8.7 | 0.00 | 0.00 | 0.00 | 32 | 1016.3 |
| 20260505055418 | 73 | 163 | 4.3 | 7.0 | 0.00 | 0.00 | 0.00 | 31 | 1016.1 |
| 20260505053018 | 71 | 116 | 11.3 | 17.4 | 0.00 | 0.00 | 0.00 | 30 | 1016.8 |
| 20260505051817 | 72 | 101 | 10.4 | 15.6 | 0.00 | 0.00 | 0.00 | 30 | 1016.7 |
| 20260505050617 | 71 | 112 | 7.0 | 12.2 | 0.00 | 0.00 | 0.00 | 30 | 1016.8 |
| 20260505040619 | 71 | 9 | 4.3 | 7.0 | 0.00 | 0.00 | 0.00 | 30 | 1017.2 |
| 20260505035418 | 71 | 32 | 1.7 | 5.2 | 0.00 | 0.00 | 0.00 | 29 | 1017.2 |
| 20260505033019 | 70 | 19 | 2.6 | 4.3 | 0.00 | 0.00 | 0.00 | 28 | 1017.3 |
| 20260505031818 | 69 | 358 | 0.9 | 4.3 | 0.00 | 0.00 | 0.00 | 29 | 1017.4 |
| 20260505025418 | 69 | 51 | 5.2 | 10.4 | 0.00 | 0.00 | 0.00 | 28 | 1017.4 |
| 20260505024217 | 68 | 96 | 7.8 | 8.7 | 0.00 | 0.00 | 0.00 | 28 | 1017.4 |
| 20260505023018 | 69 | 69 | 2.6 | 5.2 | 0.00 | 0.00 | 0.00 | 28 | 1017.5 |
| 20260505021819 | 68 | 105 | 4.3 | 6.1 | 0.00 | 0.00 | 0.00 | 29 | 1017.9 |
| 20260505020618 | 68 | 84 | 4.3 | 8.7 | 0.00 | 0.00 | 0.00 | 30 | 1018.0 |
| 20260505015419 | 66 | 177 | 2.6 | 5.2 | 0.00 | 0.00 | 0.00 | 30 | 1017.6 |
| 20260505014217 | 67 | 22 | 4.3 | 7.8 | 0.00 | 0.00 | 0.00 | 31 | 1017.9 |
| 20260505013019 | 67 | 28 | 2.6 | 6.1 | 0.00 | 0.00 | 0.00 | 31 | 1018.0 |
| 20260505011818 | 65 | 82 | 4.3 | 6.1 | 0.00 | 0.00 | 0.00 | 31 | 1018.2 |
| 20260505005418 | 64 | 70 | 6.1 | 8.7 | 0.00 | 0.00 | 0.00 | 33 | 1018.0 |
| 20260505004218 | 64 | 63 | 4.3 | 7.0 | 0.00 | 0.00 | 0.00 | 34 | 1017.8 |